Regional Weather Roundup
Issued by NWS San Angelo, TX

Home | Current Version | Previous Version | Text Only | Print | Product List | Glossary On
Versions: 1 2 3 4 5 6 7 8 9 10 11 12 13 14 15 16 17 18 19 20 21 22 23 24 25 26 27 28 29 30 31 32 33 34 35 36 37 38 39 40 41 42 43 44 45 46 47 48 49 50
000
ASUS44 KSJT 262310
RWRSJT
WEST CENTRAL TEXAS REGIONAL WEATHER ROUNDUP
NATIONAL WEATHER SERVICE SAN ANGELO TX
600 PM CDT SUN APR 26 2015

NOTE: "FAIR" INDICATES FEW OR NO CLOUDS BELOW 12,000 FEET WITH NO
SIGNIFICANT WEATHER AND/OR OBSTRUCTIONS TO VISIBILITY.

TXZ049-054-064>066-071>073-076>078-098-099-113-114-127-128-139-140-
154-155-168>170-270000
...LOCATIONS ACROSS WEST CENTRAL TEXAS...

CITY           SKY/WX    TMP DP  RH WIND       PRES   REMARKS
SAN ANGELO     MOSUNNY   92  31  11 SW22G32   29.48F
ABILENE        PTSUNNY   78  56  46 SE17      29.50F
DYESS AFB      PTSUNNY   70  64  81 NE7       29.50R
JUNCTION       MOSUNNY   89  56  32 S13G29    29.53S
SWEETWATER     MOSUNNY   78  63  60 NE7G21    29.55F
BROWNWOOD      PTSUNNY   82  63  51 SE25G33   29.46F
COLEMAN        MOCLDY    79  65  64 N7        29.48F THUNDER
SONORA         SUNNY     90  45  20 S12G18    29.57F
OZONA          FAIR      91  30  11 SW12G29   29.54F
BRADY          MOSUNNY   88  59  37 SE18      29.50F
$$

TEXAS PANHANDLE/OKLAHOMA PANHANDLE

CITY           SKY/WX    TMP DP  RH WIND       PRES   REMARKS
AMARILLO       CLOUDY    58  50  75 E32G39    29.73R SQUALL  THUNDER
BORGER         TSTM      54  48  80 NE18G28   29.74F
CANADIAN       CLOUDY    55  50  82 E13       29.77R
DALHART        CLOUDY    53  47  79 NE30G40   29.76R
DUMAS          CLOUDY    49  47  94 N14G25    29.80R
GUYMON         NOT AVBL
HEREFORD       CLOUDY    69  31  24 MISG      29.71R
PAMPA          CLOUDY    54  48  81 NE16      29.76R
PERRYTON       CLOUDY    50  49  94 SE16G24   29.84R
$$

SOUTHERN PANHANDLE/SOUTH PLAINS/ROLLING PLAINS

CITY           SKY/WX    TMP DP  RH WIND       PRES   REMARKS
LUBBOCK        CLOUDY    72  29  20 W24G32    29.68R
SNYDER         MOSUNNY   80  50  35 W8        29.55S
CHILDRESS      TSTM      59  54  83 NE23G32   29.61F
SEMINOLE       CLOUDY    69  30  23 NW14G21   29.68R
$$

PERMIAN BASIN

CITY           SKY/WX    TMP DP  RH WIND       PRES   REMARKS
MIDLAND        CLOUDY    78  27  15 NW24G38   29.59R
ODESSA         CLOUDY    76  27  16 NW29G38   29.63R
WINK           CLOUDY    71  28  20 W23G33    29.63R
$$

FAR WEST/SOUTHWEST MOUNTAINS/TRANS PECOS

CITY           SKY/WX    TMP DP  RH WIND       PRES   REMARKS
ALPINE         CLEAR     71  31  22 W20G32    29.75R
DRYDEN           N/A     95  12   5 SW21G32   29.49F
EL PASO        PTSUNNY   65  33  30 W31G41    29.73F
FORT STOCKTON  MOSUNNY   75  31  19 NW29G41   29.64R
GUADALUPE PASS MOSUNNY   57  31  37 W43G54    29.73F
MARFA          SUNNY     66  30  26 NW29G35   29.75S
PECOS          MOCLDY    72  29  20 W26G37    29.63F
$$

DALLAS/FORT WORTH METROPLEX

CITY           SKY/WX    TMP DP  RH WIND       PRES   REMARKS
DFW AIRPORT    CLOUDY    78  64  61 SE15      29.56F
FTW MEACHAM    CLOUDY    81  55  40 E20G32    29.52F
DAL-EXECUTIVE  CLOUDY    77  64  64 SE8       29.59F
GRAND PRAIRIE  SUNNY     79  64  61 E6        29.58F
ADDISON        PTSUNNY   81  61  50 E6        29.57F
MESQUITE       CLEAR     77  66  69 E3        29.60F
LANCASTER      MOCLDY    74  65  73 CALM      29.62F
$$

NORTH CENTRAL TEXAS

CITY           SKY/WX    TMP DP  RH WIND       PRES   REMARKS
SHRMAN/DENISON CLOUDY    79  72  80 E5        29.64F
GAINESVILLE    CLOUDY    75  67  74 NE3       29.63F
BRIDGEPORT     CLOUDY    77  51  39 E8G17     29.56F
DENTON         CLOUDY    79  57  46 E8        29.57F
WAXAHACHIE     MOCLDY    74  67  79 CALM      29.61F
GRANBURY       LGT RAIN  77  61  59 E21G29    29.54F
$$

WESTERN NORTH TEXAS

CITY           SKY/WX    TMP DP  RH WIND       PRES   REMARKS
WICHITA FALLS  LGT RAIN  67  55  65 SE18      29.57F
VERNON         CLOUDY    69  55  61 NE17G25   29.63R
BRECKENRIDGE   CLOUDY    75  61  62 SE13G23   29.50F
COMANCHE       CLOUDY    77  62  60 SE16G22   29.50F
$$

CENTRAL AND SOUTH CENTRAL TEXAS

CITY           SKY/WX    TMP DP  RH WIND       PRES   REMARKS
AUSTIN/BERGSTM PTSUNNY   83  71  67 S9        29.54F
WACO           MOSUNNY   82  68  62 E13       29.56F
HILLSBORO      MOCLDY    80  58  47 E9        29.60S
TEMPLE         MOSUNNY   82  64  54 SE16G23   29.57R
KILLEEN-GRAY   SUNNY     82  67  59 SE25      29.55S
FORT HOOD      MOSUNNY   83  67  58 SE21G26   29.55S
GEORGETOWN     PTSUNNY   82  66  57 SE8G20    29.57S
LAGO VISTA     MOCLDY    83  67  59 S14G21    29.59R
SAN MARCOS     PTSUNNY   82  70  65 SE16      29.56F HAZE
NEW BRAUNFELS  PTSUNNY   83  73  72 SE14      29.55F HAZE
RANDOLPH AFB   MOSUNNY   83  74  75 SE16G22   29.56F
SAN ANTONIO    PTSUNNY   85  72  65 SE18      29.55F
STINSON        PTSUNNY   86  74  67 SE14      29.53F
PLEASANTON     NOT AVBL
LA GRANGE      PTSUNNY   84  73  71 SE10G21   29.56F
GIDDINGS       PTCLDY    83  69  63 SE8       29.61S
$$

EAST TEXAS

CITY           SKY/WX    TMP DP  RH WIND       PRES   REMARKS
PARIS          CLOUDY    79  68  69 MISG      29.66S
CLARKSVILLE    NOT AVBL
TYLER          MOSUNNY   84  61  45 SE7       29.63F
LONGVIEW       PTSUNNY   85  64  49 E8        29.63F
PALESTINE      PTCLDY    83  67  58 E6        29.63F HAZE
NACOGDOCHES    PTSUNNY   79  66  65 SE8       29.66R
$$

TEXAS HILL COUNTRY AND EDWARDS PLATEAU

CITY           SKY/WX    TMP DP  RH WIND       PRES   REMARKS
LLANO          PTCLDY    86  66  51 S12G21    29.56F
HORSESHOE BAY  FAIR      84  68  57 S9G18     29.55F
KERRVILLE      MOSUNNY   84  68  58 S13       29.58F
FREDERICKSBRG  SUNNY     82  65  56 S14G20    29.58S
ROCKSPRINGS    CLEAR     82  64  54 S13       29.60F
HONDO          MOSUNNY   83  71  67 S14         N/A
UVALDE         PTCLDY    83  71  67 SE13G18   29.53F
DEL RIO        SUNNY     94  42  16 SE16G25   29.45F
$$

SOUTHEAST TEXAS

CITY           SKY/WX    TMP DP  RH WIND       PRES   REMARKS
COLLEGE STN    MOSUNNY   83  71  67 S14       29.59F
CALDWELL       PTCLDY    81  72  74 SE10      29.61F
CROCKETT       NOT AVBL
BRENHAM        PTSUNNY   84  71  65 SE10G17   29.60F
HUNTSVILLE     MOSUNNY   82  70  66 S7        29.62F
CONROE         PTSUNNY   81  68  64 SE9       29.63S
HOUSTON BUSH   CLOUDY    79  71  76 E10       29.62S
HOUSTON HOBBY  PTSUNNY   80  72  76 E6        29.62S
PERLAND        CLOUDY    81  73  76 SE8       29.64S
WHARTON        TSTM      65  64  96 N32G41    29.65R VSB 1/4
$$

THE UPPER TEXAS COAST

CITY           SKY/WX    TMP DP  RH WIND       PRES   REMARKS
ORANGE         PTCLDY    79  69  71 SE8       29.67S
PORT ARTHUR    MOSUNNY   79  72  79 SE10      29.63F
GALVESTON      CLOUDY    77  75  93 E12       29.63F
ANGLETON       CLOUDY    76  74  93 SE16      29.60F FOG
BAY CITY       CLOUDY    78  76  96 SE10G16   29.59S FOG
$$

TEXAS COASTAL BEND, RIO GRANDE PLAINS DEEP SOUTH TEXAS

CITY           SKY/WX    TMP DP  RH WIND       PRES   REMARKS
VICTORIA       FOG       77  77 100 SE13      29.58F VSB 3/4
BEEVILLE       FAIR      82  78  87 SE9G18    29.55F
ROCKPORT       CLOUDY    81  76  84 SE14      29.55F HAZE
PORT ARANSAS   CLOUDY    77  76  94 SE10      29.57F FOG
PORT LAVACA    CLOUDY    77  75  94 SE14      29.58F FOG
CORPUS CHRISTI CLOUDY    80  77  90 SE12      29.56F FOG
KINGSVILLE NAS PTSUNNY   85  80  85 E15       29.53F HAZE
COTULLA        CLOUDY    90  72  55 SE13      29.52F
LAREDO         CLOUDY    92  69  46 E10       29.51F
BROWNSVILLE    PTSUNNY   85  78  80 SE10      29.54F HAZE
PORT ISABEL    PTSUNNY   86  76  71 S14       29.53F HAZE
HEBBRONVILLE   PTCLDY    91  70  49 E10       29.53F
MCALLEN        CLOUDY    90  79  70 SE12      29.52F
WESLACO        CLOUDY    87  76  69 S8        29.52F
FALFURRIAS     MOCLDY    90  78  67 E8        29.50F
EDINBURG       CLOUDY    90  76  64 SE6       29.52F
$$


USA.gov is the U.S. government's official web portal to all federal, state and local government web resources and services.